User: anonymous   Login
Location: ??
(35.4032°N, 139.3073°E)
Time: 11:10:34
(UTC+00:00)
Language:

CZ-3 Stage 3 - Orbit

View from above orbital plane
View from above orbital plane
View from above satellite
View from above satellite

Ground track
Ground track

The orbit data is extracted from the following two-line orbital elements,

1 16528U 86010B   24167.08851960  .00000015  00000-0  15797-3 0  9992
2 16528  30.5882 139.6442 7153548 167.3213 231.5101  2.32127615272301
Epoch (UTC): 15 June 2024 02:07:28
Eccentricity: 0.7153548
inclination: 30.5882°
perigee height: 480 km
apogee height: 34952 km
right ascension of ascending node: 139.6442°
argument of perigee: 167.3213°
revolutions per day: 2.32127615
mean anomaly at epoch: 231.5101°
orbit number at epoch: 27230

The dashed part of the orbit path shows where the satellite is in the earth's shadow,  

DLR